Location: B?lite?ti
(46.2833°N, 22.7333°E)
Time: 17:20:46
(UTC+00:00)

Cosmos 2082 Rocket - Pass Details

Date: 24 January 2021
Orbit: 832 x 855 km, 71.0° (Epoch: 28 February)

Event Time Altitude Azimuth Distance (km) Brightness Sun altitude
Rises 16:52:24 0° 339° (NNW) 3,436 5.5 -15.5°
Reaches altitude 10° 16:55:18 10° 352° (N) 2,496 4.6 -16.0°
Maximum altitude 17:00:03 26° 48° (NE) 1,624 3.2 -16.8°
Enters shadow 17:00:46 25° 60° (ENE) 1,648 3.2 -16.9°
